Location: Daerah Kuala Lumpur
(3.1167°N, 101.6833°E)
Time: 19:07:52
(UTC+00:00)

CZ-4C R/B - Pass Details

Date: 15 November 2024
Orbit: 514 x 1473 km, 63.4° (Epoch: 13 December)

Event Time Altitude Azimuth Distance (km) Brightness Sun altitude
Rises 12:23:38 0° 347° (NNW) 4,343 5.8 -21.3°
Reaches altitude 10° 12:26:30 10° 351° (N) 3,456 5.2 -22.0°
Maximum altitude 12:35:03 56° 67° (ENE) 1,712 3.3 -24.0°
Drops below altitude 10° 12:43:50 10° 143° (SE) 3,549 5.2 -26.0°
Sets 12:46:47 0° 147° (SSE) 4,466 5.8 -26.7°
